Location: Newark
(42.8481°N, 0.4872°E)
Time: 22:08:54
(UTC+00:00)

Vanguard 2 - Pass Details

Date: 02 November 2020
Orbit: 554 x 2937 km, 32.9° (Epoch: 29 November)

Event Time Altitude Azimuth Distance (km) Brightness Sun altitude
Rises 17:18:56 0° 221° (SW) 4,268 12.4 -6.1°
Reaches altitude 10° 17:21:41 10° 213° (SSW) 3,587 11.7 -6.6°
Maximum altitude 17:30:22 37° 150° (SSE) 2,823 10.2 -8.2°
Enters shadow 17:43:09 10° 92° (E) 5,318 11.2 -10.5°
Drops below altitude 10° 17:43:17 10° 91° (E) 5,351 - -10.5°
Sets 17:48:27 0° 85° (E) 6,597 - -11.4°
